Location: Avully
(45.9633°N, 6.0228°E)
Time: 13:39:06
(UTC+00:00)

Cosmos 1825 - Pass Details

Date: 23 May 2024
Orbit: 439 x 443 km, 82.5° (Epoch: 18 June)

Event Time Altitude Azimuth Distance (km) Brightness Sun altitude
Exits shadow 02:35:16 - 171° (S) 1,812 4.6 -11.6°
Reaches altitude 10° 02:35:53 10° 168° (SSE) 1,560 4.3 -11.5°
Maximum altitude 02:39:09 46° 94° (E) 610 2.9 -11.1°
Drops below altitude 10° 02:42:27 10° 21° (NNE) 1,579 5.8 -10.7°
Sets 02:44:35 0° 15° (NNE) 2,457 6.8 -10.5°
